Regional Weather Roundup
Issued by NWS Bismarck, ND

Home | Current Version | Previous Version | Text Only | Print | Product List | Glossary On
Versions: 1 2 3 4 5 6 7 8 9 10 11 12 13 14 15 16 17 18 19 20 21 22 23 24 25 26 27 28 29 30 31 32 33 34 35 36 37 38 39 40 41 42 43 44 45 46 47 48 49 50
000
ASUS43 KBIS 291902
RWRBIS

NWR BROADCAST TEXT
NATIONAL WEATHER SERVICE BISMARCK ND
200 PM CDT MON MAY 29 2017

NOTE: "FAIR" INDICATES FEW OR NO CLOUDS BELOW 12,000 FEET WITH NO
SIGNIFICANT WEATHER AND/OR OBSTRUCTIONS TO VISIBILITY.


CITY           SKY/WX    TMP DP  RH WIND       PRES   REMARKS
WILLISTON      PTSUNNY   66  34  30 NW18      30.10F
MINOT          CLOUDY    60  39  45 NW21G30   29.99F
MINOT AFB      PTSUNNY   61  39  44 NW24G35   29.98F
BISMARCK       CLOUDY    63  38  39 NW21G29   30.04S
DICKINSON      PTSUNNY   62  33  33 NW22G31   30.08S
GARRISON         N/A     62  37  39 NW24G39   30.01F
HETTINGER ARPT PTSUNNY   64  34  32 NW21G32   30.11F
JAMESTOWN      NOT AVBL
HAZEN          CLOUDY    61  37  41 NW20G26   30.06F
LINTON         CLOUDY    61  45  55 NW21G30   30.05S
MANDAN         CLOUDY    59  37  44 NW17G30   30.05S
STANLEY        MOCLDY    61  36  39 NW20G30   30.07S
TIOGA          CLOUDY    57  34  41 NW26      30.08S
WATFORD CITY   MOCLDY    59  34  38 NW21      30.08F
$$

CITY           SKY/WX    TMP DP  RH WIND       PRES   REMARKS
GRAND FORKS    LGT RAIN  56  48  74 NW17G24   29.87R
GRAND FORKS AF LGT RAIN  55  50  85 NW15G21   29.88R
DEVILS LAKE    LGT RAIN  50  44  80 NW13G32   29.93R
FARGO          CLOUDY    59  48  67 NW12G23   29.88F
CAVALIER       CLOUDY    54  45  71 N16G26    29.86R
GRAFTON        MOCLDY    55  52  88 NW14      29.88S
GWINNER        MOCLDY    61  46  59 MISG      29.93F
LANGDON        MOCLDY    54  50  87 NW21G26   29.89R
ROLLA          MOCLDY    52  45  76 NW22G30   29.93S
$$

CITY           SKY/WX    TMP DP  RH WIND       PRES   REMARKS
ABERDEEN       PTSUNNY   64  43  46 N15G23    29.99F
MOBRIDGE       PTSUNNY   66  37  34 NW22G33   30.02S
BUFFALO          N/A     63  35  35 NW26G32   30.08S
RAPID CITY     FAIR      68  30  24 NW18G33   30.14F
GLASGOW        FAIR      65  33  30 NW13G26   30.17F
SIDNEY         FAIR      64  33  31 NW21G29   30.12F
WOLF POINT     FAIR      68  31  25 NW15G26   30.15F
GLENDIVE       FAIR      65  32  29 NW16G28   30.15F
MILES CITY     FAIR      68  28  22 NW16G28   30.17F
BAKER          FAIR      63  31  30 NW17G31   30.15F
$$

CITY           SKY/WX    TMP DP  RH WIND       PRES   REMARKS
BILLINGS       FAIR      70  39  32 NW6       30.21F
GREAT FALLS    FAIR      72  45  37 CALM      30.17F
$$




USA.gov is the U.S. government's official web portal to all federal, state and local government web resources and services.